Lapse_Rate
6.6 6.7 6.7 6.6 6.5 6.4 6.3 6.2 6.2 6.2 6.0 6.0 6.0 6.0 6.0 6.1 6.2 6.2 6.1 5.9 5.8 5.8 5.8 5.9 5.9 6.0 5.9 5.9 6.0 6.1 6.3 6.2 6.2 6.5 6.8 6.7 6.7 6.7 6.7 6.8 6.9 7.0 7.0
6.6 6.6 6.6 6.5 6.4 6.3 6.2 6.2 6.0 5.9 5.9 5.9 6.0 6.0 6.1 6.1 6.0 6.0 6.0 6.0 5.9 5.8 5.9 5.9 5.9 5.9 5.9 6.1 6.2 6.2 6.2 6.4 6.7 6.8 6.5 6.5 6.6 6.6 6.6 6.7 6.8 7.0 7.0
6.6 6.6 6.6 6.6 6.4 6.3 6.3 6.0 5.9 5.8 5.9 5.9 6.0 6.0 6.0 5.9 5.9 5.9 5.9 5.9 6.0 6.1 6.0 5.9 5.8 5.9 6.0 6.1 6.3 6.4 6.5 6.7 6.8 6.8 6.6 6.7 6.7 6.5 6.5 6.6 6.7 6.9 6.7
6.8 6.7 6.7 6.5 6.5 6.3 6.1 6.0 5.9 5.8 5.8 5.8 5.9 5.9 5.8 5.8 5.7 5.6 5.7 5.8 6.0 6.0 5.8 5.8 6.1 6.3 6.4 6.4 6.7 6.9 7.0 6.8 6.7 6.7 6.7 6.8 6.9 7.0 6.4 6.5 6.6 6.7 6.5
6.8 6.7 6.5 6.4 6.3 6.2 6.0 5.8 5.8 5.8 5.8 5.8 5.8 5.6 5.6 5.5 5.3 5.5 5.7 5.8 6.0 5.9 5.9 6.0 6.1 6.4 6.6 6.8 7.0 7.1 7.0 7.0 6.9 6.7 6.8 7.0 7.0 6.9 6.9 6.5 6.2 6.5 6.2
6.5 6.4 6.3 6.3 6.2 6.0 5.8 5.8 5.8 5.8 5.7 5.6 5.4 5.2 5.2 5.2 5.3 5.5 5.7 5.9 5.9 6.0 6.2 6.3 6.7 6.9 7.0 7.2 7.1 7.1 7.0 6.9 7.0 7.0 6.9 6.8 6.8 6.8 6.8 6.6 6.4 6.4 6.2
6.2 6.1 6.0 6.0 5.8 5.6 5.6 5.7 5.7 5.6 5.5 5.4 5.2 5.3 5.2 5.2 5.3 5.7 5.9 6.0 6.0 5.9 6.2 6.7 7.1 7.3 7.3 7.3 7.3 7.2 7.2 7.2 7.1 7.1 7.0 6.9 6.7 6.7 6.7 6.5 6.3 6.3 6.0
5.9 5.9 5.8 5.6 5.4 5.5 5.6 5.6 5.6 5.5 5.3 5.3 5.3 5.2 5.2 5.4 5.7 6.0 5.9 5.9 6.0 6.2 6.6 6.9 7.2 7.4 7.4 7.4 7.3 7.2 7.3 7.3 7.2 7.1 7.1 7.0 6.9 6.9 6.8 6.4 6.2 6.0 5.9
5.6 5.6 5.5 5.5 5.6 5.7 5.7 5.7 5.7 5.7 5.5 5.4 5.3 5.4 5.7 6.0 6.0 6.0 6.0 6.1 6.1 6.5 6.8 7.2 7.4 7.4 7.4 7.3 7.2 7.2 7.1 7.2 7.1 7.1 7.1 7.0 7.0 7.0 6.9 6.7 6.4 6.2 6.1
5.5 5.5 5.6 5.7 5.8 6.0 6.0 5.9 5.8 5.6 5.5 5.4 5.6 6.0 6.0 6.2 6.3 6.3 6.3 6.3 6.4 6.6 6.8 7.0 7.2 7.3 7.3 7.2 7.1 7.1 7.0 7.0 7.0 7.0 6.9 6.9 6.9 6.9 6.9 6.8 6.7 6.4 6.2
5.6 5.7 5.8 6.0 5.9 5.9 5.8 5.7 5.6 5.7 5.7 6.1 6.1 6.1 6.0 6.1 6.4 6.6 6.5 6.6 6.6 6.6 7.0 7.2 7.1 7.1 7.2 7.2 7.0 7.0 6.9 6.9 6.9 6.9 6.8 6.8 6.8 6.8 6.7 6.6 6.6 6.4 6.3
5.8 5.9 5.9 5.7 5.7 5.7 5.7 5.8 5.9 6.0 6.0 5.9 5.8 5.7 5.8 6.0 6.4 6.8 6.7 6.7 6.8 6.9 7.0 7.1 7.2 7.1 7.0 7.1 7.0 7.0 6.9 6.9 6.9 6.8 6.8 6.8 6.7 6.6 6.6 6.6 6.5 6.3 6.1
5.8 5.8 5.6 5.4 5.5 5.6 5.7 5.8 5.9 6.0 6.1 5.9 5.8 5.7 5.7 5.8 6.0 6.4 6.8 6.8 6.8 6.9 7.2 7.1 7.0 7.2 7.1 6.9 6.8 6.8 6.8 6.7 6.8 6.8 6.7 6.7 6.7 6.5 6.5 6.5 6.4 6.2 6.1
5.5 5.3 5.3 5.4 5.6 5.7 5.9 5.9 5.9 6.0 6.0 5.9 5.8 5.7 5.7 6.0 6.2 6.3 6.8 6.9 6.9 6.9 7.0 7.1 7.1 7.0 7.0 6.9 6.8 6.8 6.7 6.7 6.7 6.7 6.6 6.6 6.6 6.6 6.5 6.4 6.3 6.3 6.1
5.3 5.2 5.4 5.7 5.8 5.9 5.9 5.9 5.9 6.1 6.1 6.0 5.8 5.7 5.8 6.1 6.3 6.2 6.8 7.0 6.9 6.9 7.0 7.0 7.0 6.9 6.9 6.8 6.7 6.8 6.7 6.6 6.7 6.6 6.6 6.6 6.6 6.5 6.4 6.4 6.3 6.2 6.1
5.1 5.1 5.3 5.7 5.9 6.0 5.9 5.9 5.9 5.8 5.8 5.8 5.7 5.7 5.9 6.0 6.1 6.2 6.3 6.9 7.0 7.0 6.9 6.8 6.8 6.9 6.8 6.7 6.7 6.7 6.7 6.6 6.6 6.5 6.5 6.5 6.5 6.5 6.4 6.2 6.2 6.1 5.9
4.9 5.1 5.5 5.7 5.7 5.7 5.8 5.8 5.8 5.8 5.7 5.7 5.7 5.8 5.9 5.8 6.0 6.1 6.2 6.5 7.0 7.0 6.9 6.8 6.7 6.6 6.6 6.5 6.6 6.6 6.7 6.7 6.6 6.5 6.4 6.4 6.4 6.3 6.2 6.0 6.0 5.9 5.8
4.9 5.3 5.5 5.6 5.6 5.6 5.6 5.5 5.5 5.5 5.6 5.6 5.6 5.8 5.9 5.9 5.9 6.0 6.1 6.1 6.5 6.9 7.0 6.9 6.8 6.8 6.4 6.3 6.3 6.3 6.5 6.6 6.5 6.5 6.4 6.3 6.2 6.1 6.0 6.0 6.0 5.9 5.8
5.1 5.3 5.5 5.5 5.5 5.4 5.3 5.2 5.2 5.3 5.4 5.4 5.5 5.6 5.7 5.8 5.8 6.0 6.1 6.2 6.2 6.2 6.5 6.6 6.5 6.5 6.7 6.5 6.3 6.2 6.3 6.5 6.4 6.3 6.4 6.3 6.2 6.0 5.9 6.1 6.1 6.0 5.8
5.5 5.5 5.4 5.4 5.3 5.2 5.1 5.1 5.1 5.2 5.2 5.2 5.3 5.6 5.8 5.8 5.9 5.9 5.9 6.0 6.1 6.1 6.0 6.0 6.2 6.3 6.3 5.9 5.9 6.1 6.3 6.4 6.2 6.1 6.1 6.0 6.0 5.9 5.8 6.0 6.0 6.1 5.4
5.2 5.2 5.1 4.9 4.9 4.9 4.9 5.0 5.0 5.0 5.2 5.2 5.2 5.2 5.4 5.6 5.7 5.7 5.7 5.7 5.8 5.8 5.9 6.0 5.9 5.8 5.8 5.9 5.7 5.7 5.8 6.0 6.1 6.2 6.1 5.9 5.8 5.8 6.0 5.8 5.8 5.6 5.2
5.3 5.1 4.8 4.7 4.8 5.0 5.0 5.1 5.1 5.1 5.1 5.1 5.2 5.1 5.0 5.1 5.2 5.4 5.4 5.3 5.4 5.4 5.4 5.5 5.7 5.6 5.5 5.6 5.6 5.4 5.4 5.5 5.7 5.8 5.8 5.7 5.6 5.6 5.7 5.8 5.6 5.2 5.0
5.2 5.2 5.1 4.8 4.7 4.6 4.8 5.0 5.0 5.1 5.1 5.0 5.0 5.1 5.1 5.1 5.1 5.1 5.1 5.1 5.0 5.1 5.2 5.2 5.3 5.3 5.2 5.2 5.3 5.3 5.2 5.2 5.2 5.4 5.5 5.5 5.5 5.3 5.3 5.2 5.2 5.0 4.8
5.1 5.0 4.9 4.8 4.8 4.7 4.6 4.7 4.8 4.8 4.8 4.9 4.9 4.9 5.0 5.0 4.9 4.8 4.9 5.1 5.2 5.0 4.9 5.0 5.0 5.0 5.1 5.0 4.8 4.8 4.8 4.8 4.7 4.8 5.0 5.1 5.0 5.0 4.9 4.8 4.7 4.7 4.7
5.1 4.9 4.9 4.9 4.9 4.9 4.8 4.8 4.7 4.8 5.0 5.0 5.0 5.0 5.0 5.0 4.9 4.8 4.7 4.7 4.8 5.0 5.0 4.8 4.9 5.0 4.8 4.8 4.8 4.6 4.4 4.4 4.3 4.3 4.3 4.3 4.4 4.5 4.4 4.3 4.3 4.3 4.4
4.9 4.9 4.9 4.8 4.8 4.9 4.8 4.7 4.7 4.6 4.7 4.9 5.0 5.1 5.2 5.1 5.0 5.1 5.1 4.8 4.6 4.9 4.9 4.9 4.9 4.7 4.5 4.4 4.2 4.0 3.8 3.8 3.8 3.8 3.7 3.8 3.9 4.1 4.2 4.2 4.2 4.3 4.4
Wind_Speed
4 5 6 6 6 6 6 6 4 3 3 2 3 2 3 4 4 5 6 6 6 6 7 6 6 5 4 5 6 6 7 6 8 7 5 2 2 1 3 4 5 6 7
7 6 6 4 5 6 7 6 5 4 3 2 2 2 3 3 4 5 6 5 6 5 6 6 5 5 5 5 5 5 6 5 6 6 5 3 2 4 1 4 5 8 7
6 5 4 5 3 6 6 6 4 4 4 4 3 3 3 4 4 3 4 3 5 5 6 6 6 5 4 4 5 5 6 5 5 6 4 3 3 8 2 5 6 9 7
4 4 1 2 3 3 4 4 4 5 5 5 4 5 5 5 4 4 4 5 6 5 4 6 7 6 5 5 4 4 5 5 5 3 2 3 4 3 5 6 6 8 6
5 6 5 2 1 2 3 4 5 6 6 6 6 5 6 5 4 4 6 5 5 6 6 6 6 5 4 6 6 5 5 4 4 4 4 3 3 4 2 7 9 10 6
5 4 2 1 1 2 3 4 5 6 5 7 8 9 9 8 6 6 5 4 4 4 5 7 7 8 6 6 6 5 6 6 5 4 4 3 2 3 3 5 8 9 7
4 4 3 3 4 4 5 4 5 5 4 7 8 9 10 9 9 8 6 6 5 4 4 5 6 6 7 7 6 4 6 6 5 5 5 4 4 4 4 5 6 5 9
5 5 5 5 6 7 6 6 6 6 7 7 9 8 9 7 7 7 6 6 6 6 5 6 7 8 9 8 7 5 5 6 5 7 6 4 5 4 3 3 4 6 7
6 7 7 6 7 8 7 6 7 9 10 10 8 8 8 9 8 9 8 6 7 6 7 7 7 7 7 7 7 6 7 5 4 6 7 6 5 5 5 4 4 4 5
8 8 7 7 7 7 6 6 6 8 9 8 7 7 8 9 9 8 10 9 8 8 8 8 7 7 6 6 7 7 7 7 6 5 7 7 6 6 5 5 6 5 5
6 7 7 7 7 7 8 7 7 8 8 7 7 8 7 8 9 9 9 10 9 8 9 8 8 7 7 7 6 7 8 8 7 7 7 7 8 6 5 5 6 7 6
2 4 6 7 8 9 9 9 9 9 8 8 8 8 8 8 9 10 11 10 10 9 9 9 9 8 8 8 8 8 8 8 8 7 7 7 6 8 7 5 6 5 7
1 4 7 8 9 9 9 10 10 10 9 9 9 9 9 8 9 10 10 10 10 10 10 10 10 10 9 9 8 9 9 9 9 8 8 8 8 8 6 7 6 7 6
0 6 8 9 9 9 10 10 11 10 10 10 10 10 10 9 10 9 9 10 10 11 11 11 11 10 10 9 9 10 10 10 9 9 9 9 10 9 8 8 9 7 7
2 7 9 9 9 10 10 10 10 11 11 11 11 10 11 10 10 9 9 9 10 10 10 10 10 11 10 8 11 10 10 11 11 10 10 10 10 6 8 7 8 9 8
5 7 8 9 10 10 11 11 11 11 10 10 11 11 10 10 9 9 8 8 9 9 9 10 11 11 9 10 12 12 10 11 11 11 11 10 9 11 13 13 12 12 9
5 7 8 8 9 10 10 11 11 10 10 10 10 10 10 10 9 9 9 9 8 8 9 10 10 11 11 10 13 14 11 12 12 12 11 10 8 9 10 11 13 13 15
4 5 6 8 8 8 8 9 9 9 10 10 10 10 11 11 10 9 8 8 8 8 8 9 10 10 10 11 14 15 12 12 14 14 13 12 12 11 10 10 11 11 11
4 5 5 7 7 7 9 10 10 10 10 11 11 12 11 11 10 10 9 8 7 7 8 9 10 10 11 10 12 12 10 12 14 13 13 13 13 13 10 11 11 12 11
2 4 6 6 6 8 9 9 10 10 11 11 11 11 10 9 10 10 10 8 8 9 7 10 10 11 11 12 11 11 8 11 10 12 12 14 16 15 13 12 12 12 11
5 6 5 6 6 7 8 9 9 10 11 11 11 11 10 10 9 9 9 9 9 9 10 10 10 10 10 11 11 13 9 9 9 9 8 9 12 16 17 17 12 12 9
4 5 6 7 7 7 7 9 9 10 10 11 11 10 10 8 7 9 8 9 9 9 9 9 9 7 8 7 10 13 14 13 10 10 9 9 9 11 15 13 18 17 13
5 5 5 7 7 7 8 9 10 10 11 11 11 11 10 9 9 9 9 8 8 8 8 7 8 7 6 6 7 11 12 13 10 10 10 13 12 14 13 17 17 13 8
5 6 7 7 8 8 8 8 9 9 10 11 10 10 10 11 9 6 6 6 6 7 7 7 7 7 6 6 5 5 5 6 7 9 8 9 11 13 11 9 9 7 8
5 6 6 7 9 10 10 10 10 10 10 10 9 9 8 9 9 7 6 6 6 5 6 6 6 7 7 6 8 9 7 7 7 8 7 6 6 6 6 6 7 7 7
7 7 7 8 10 10 11 11 9 9 10 11 9 9 8 8 7 7 8 8 12 12 11 13 10 8 11 15 15 14 13 13 12 7 7 7 7 7 7 7 7 6 8
Wind_Direction
253 259 253 237 228 215 208 206 211 205 237 263 296 287 315 319 307 321 319 316 323 323 319 321 321 323 315 327 322 324 325 334 343 316 338 313 21 216 333 352 339 326 317
258 245 243 232 220 220 209 206 218 224 241 253 269 292 318 309 307 304 310 307 312 315 314 316 315 318 317 320 328 333 334 337 357 341 308 348 166 2 293 341 347 343 324
308 292 258 223 207 211 205 211 220 240 241 234 233 254 270 266 284 298 305 302 297 308 315 310 305 309 306 313 320 332 338 333 338 356 337 328 355 337 297 331 330 338 333
27 14 332 204 204 201 209 228 238 246 245 227 244 256 279 290 303 295 296 294 282 289 305 306 303 309 310 309 322 321 327 317 322 326 348 326 315 337 320 332 326 343 335
25 36 47 78 131 193 217 237 244 249 246 234 239 252 260 270 281 281 280 277 280 270 301 303 307 304 309 311 307 309 318 305 296 308 336 333 317 288 293 309 331 333 336
27 44 51 52 129 207 236 246 252 260 245 239 242 245 257 265 270 273 270 265 266 273 275 291 296 295 295 295 304 309 302 313 301 293 285 275 303 310 288 305 318 315 330
25 21 16 352 334 312 294 281 266 275 271 260 256 251 253 259 266 273 273 271 263 260 268 286 286 291 294 294 294 294 281 299 302 304 287 269 258 257 282 284 296 295 304
36 23 6 339 328 319 307 291 283 293 297 287 274 262 254 253 258 262 261 264 267 268 268 270 273 278 283 287 289 284 272 282 287 289 279 275 267 265 259 262 291 307 298
4 357 355 355 348 344 325 311 300 298 297 294 285 274 262 250 254 260 261 260 264 268 270 272 278 277 276 279 281 276 274 273 272 275 285 277 274 269 273 256 261 292 302
358 2 4 3 2 0 354 339 321 309 309 306 294 285 280 265 260 262 260 259 257 258 262 260 260 259 263 264 266 271 269 273 265 256 280 281 276 274 274 273 274 263 279
28 32 27 21 16 11 6 356 346 333 326 321 312 299 286 272 263 261 263 260 263 258 259 258 255 251 249 253 256 260 264 263 268 265 260 271 276 274 274 273 275 276 267
60 25 17 13 10 1 353 348 342 331 327 324 321 314 305 291 274 263 259 258 259 259 255 252 251 248 243 243 245 251 253 260 263 265 267 262 262 262 264 261 266 272 283
118 11 8 3 355 347 342 337 335 333 330 325 315 307 304 299 288 280 270 259 255 255 253 246 246 247 244 242 242 247 251 254 258 260 262 261 256 262 262 264 262 271 267
332 351 351 349 347 344 339 336 335 336 327 323 315 309 308 305 296 291 279 263 254 253 251 250 250 249 250 247 247 247 251 254 255 256 256 259 260 265 269 272 273 273 272
324 345 343 342 341 339 339 340 334 332 330 321 315 311 312 306 297 290 284 273 263 258 258 259 254 253 249 246 243 245 250 255 258 255 253 253 257 282 273 273 272 278 275
340 335 336 341 343 340 334 332 331 328 325 321 319 318 318 315 304 292 287 280 272 264 255 251 254 259 256 251 237 250 258 257 257 260 260 257 243 250 248 249 247 254 266
332 338 336 340 338 335 331 330 327 325 328 326 325 328 329 322 319 312 301 290 280 275 267 264 258 253 254 241 245 248 256 261 261 259 260 260 255 249 256 245 243 248 247
325 332 336 337 336 330 333 329 334 337 338 339 340 337 333 326 323 317 309 303 297 285 275 270 266 265 267 247 237 240 248 254 256 256 257 258 260 255 252 258 261 257 254
324 324 325 321 325 337 339 338 344 347 346 345 340 338 334 326 325 323 322 316 305 295 285 279 279 270 269 251 242 253 257 256 256 256 254 252 254 254 231 248 258 262 258
322 321 325 320 333 345 339 338 345 345 347 340 332 327 325 319 318 317 313 310 302 297 294 286 277 270 269 270 252 252 253 255 254 256 252 241 246 252 233 238 251 255 257
336 329 324 328 335 337 336 339 340 344 337 328 324 323 326 323 317 313 311 310 308 300 294 290 287 282 274 275 264 254 251 254 264 264 264 261 245 249 252 239 246 247 260
341 346 333 335 335 336 334 330 328 328 324 325 323 324 324 323 318 319 316 317 309 304 303 301 299 294 292 271 273 267 252 259 258 263 266 266 256 243 250 252 245 245 237
347 347 336 325 330 334 333 324 330 330 328 327 329 332 326 322 321 321 318 317 314 308 308 306 304 307 311 301 280 278 275 264 258 263 266 272 270 263 263 254 251 240 228
341 337 331 330 330 338 328 322 324 327 325 325 324 324 327 328 327 319 312 309 310 310 307 308 308 314 316 311 316 313 303 280 273 271 276 274 277 278 272 277 261 241 233
322 323 323 324 327 333 332 332 330 331 327 326 327 326 322 319 319 316 309 305 300 281 296 299 303 306 307 313 311 302 302 297 288 291 279 273 266 265 257 257 252 247 240
324 324 325 324 325 325 321 322 323 322 324 325 330 328 324 321 316 311 311 253 250 273 266 265 262 282 271 282 288 289 286 285 287 281 273 271 274 275 278 271 266 250 246